Weather in Tokmak

Ukraine / Zaporizhia Region     47°15′18″N   35°42′33″E
temp.,
°C
wind,
m/s
gust,
m/s
humid.,
%
clouds,
%
prec.,
mm/h
press.,
hPa
HPBL,
m
2 march, tue
tue223:000n33830 0.0 102957
02:000nw23812 0.0 103060
05:00−1wnw23862 0.0 102962
08:00+1wnw35761 0.0 1029266
11:00+4w68590 0.0 1027972
14:00+5w796144 0.0 1024960
17:00+4wsw61269100 0.0 1022754
20:00+2wsw7147781 0.0 1021586
3 march, wed
wed323:00+3wnw71187100 0.1 1019640
02:00+1nw7129697 0.2 1019610
05:00+2nnw81280100 0.1 1020886
08:00+2nnw7107991 0.1 1023775
11:00+4nnw696162 0.0 10241143
14:00+6nw7105047 0.0 10251522
17:00+5nw48540 0.0 1025394
20:00+2nw34660 0.0 102667
4 march, thu
thu423:00+1wnw23750 0.0 102629
02:000sw33760 0.0 102556
05:000sw35820 0.0 1024106
08:00+3sw58680 0.0 1023357
11:00+7sw710560 0.0 10211121
14:00+9sw811560 0.0 10181287
17:00+8sw7116667 0.0 1016768
20:00+5sw6157660 0.0 1016585
5 march, fri
fri523:00+3sw6148239 0.0 1015550
02:00+2sw6138821 0.0 1015518
05:00+2sw5129223 0.0 1014378
08:00+4sw6108954 0.0 1014439
11:00+8sw687699 0.0 1014646
14:00+11ssw7106598 0.0 1012996
17:00+8s61068100 0.0 1011399
20:00+6s498188 0.0 1011216
6 march, sat
sat623:00+5ssw4109238 0.0 1011273
02:00+4sw369762 0.0 1012188
05:00+4wnw359799 0.0 1012205
08:00+3n699299 0.1 1014362
11:00+2n71094100 1.1 1015550
14:00+4n6856100 1.4 10161142
17:00+3nnw6852100 0.0 10181252
20:00+1nnw61161100 0.0 1021909